Hourly Data Report for October 08, 2015

All times are specified in Local Standard Time (LST). Add 1 hour to adjust for Daylight Saving Time where and when it is observed.

BATHURST A
NEW BRUNSWICK

47°37'47.000" N
65°44'20.000" W
58.80 m
8100505
71574
ZBF

Download Data

Hourly Data (October 2015)
Hourly Data Report for October 8, 2015
Temp Definition
°C
Dew Point Temp Definition
°C
Rel Hum Definition
%
Wind Dir Definition
10's deg

Wind Spd Definition
km/h
Visibility Definition
km
Stn Press Definition
kPa
Hmdx Definition


Wind Chill Definition


Weather Definition


TIME
00:00 Legend Double Dagger 9.2 5.4 77 28 18 24.1 100.20     LegendNANA
01:00 Legend Double Dagger 8.2 4.8 79 28 16 24.1 100.26     LegendNANA
02:00 Legend Double Dagger 7.4 3.3 75 28 17 24.1 100.32     Clear
03:00 Legend Double Dagger 6.5 2.2 74 28 14 24.1 100.36     LegendNANA
04:00 Legend Double Dagger 5.9 1.6 74 28 16 24.1 100.39     LegendNANA
05:00 Legend Double Dagger 4.4 1.3 80 26 16 24.1 100.47     Clear
06:00 Legend Double Dagger 4.7 0.8 76 28 9 24.1 100.54     LegendNANA
07:00 Legend Double Dagger 4.6 0.9 77 26 17 24.1 100.62     LegendNANA
08:00 Legend Double Dagger 6.2 1.2 70 27 21 24.1 100.69     Clear
09:00 Legend Double Dagger 7.8 1.2 63 29 15 24.1 100.74     LegendNANA
10:00 Legend Double Dagger 8.7 -0.1 54 31 22 24.1 100.79     LegendNANA
11:00 Legend Double Dagger 9.8 -0.1 50 27 23 24.1 100.78     Mainly Clear
12:00 Legend Double Dagger 10.6 -0.5 46 29 21 24.1 100.81     LegendNANA
13:00 Legend Double Dagger 10.6 -0.8 45 31 14 24.1 100.80     LegendNANA
14:00 Legend Double Dagger 11.6 -0.2 44 30 13 24.1 100.77     Mainly Clear
15:00 Legend Double Dagger 10.5 -1.8 42 28 12 24.1 100.80     LegendNANA
16:00 Legend Double Dagger 10.1 -2.2 42 31 15 24.1 100.83     LegendNANA
17:00 Legend Double Dagger 8.8 -1.3 49 33 9 24.1 100.93     Mostly Cloudy
18:00 Legend Double Dagger 6.8 -0.9 58 7 4 24.1 101.00     LegendNANA
19:00 Legend Double Dagger 6.4 -1.0 59 27 9 24.1 101.09     LegendNANA
20:00 Legend Double Dagger 6.0 -1.2 60 28 5 24.1 101.12     Cloudy
21:00 Legend Double Dagger 4.4 -0.4 71 26 8 24.1 101.14     LegendNANA
22:00 Legend Double Dagger 4.9 -0.9 66 27 9 24.1 101.16     LegendNANA
23:00 Legend Double Dagger 5.5 -1.4 61 28 10 24.1 101.13     Cloudy

Notes on Data Quality.

Legend

  • E = Estimated
  • M = Missing
  • NA = Not Available
  • ‡ = Partner data that is not subject to review by the National Climate Archives
Date modified: